Regional Weather Roundup
Issued by NWS

Home | Current Version | Previous Version | Text Only | Print | Product List | Glossary Off
Versions: 1 2 3 4 5 6 7 8 9 10 11 12 13 14 15 16 17 18 19 20 21 22 23 24 25 26 27 28 29 30 31 32 33 34 35 36 37 38 39 40 41 42 43 44 45 46 47 48 49 50

000
ASUS43 KDTX 252201
RWRMI
MICHIGAN HOURLY REGIONAL WEATHER ROUNDUP
NATIONAL WEATHER SERVICE DETROIT/PONTIAC MI
500 PM EST THU DEC 25 2014

NOTE: "FAIR" INDICATES FEW OR NO CLOUDS BELOW 12,000 FEET WITH NO
SIGNIFICANT WEATHER AND/OR OBSTRUCTION TO VISIBILITY.

MIZ047>049-052>055-059>063-066>070-074>076-081>083-252300-
SOUTHEAST LOWER MICHIGAN

CITY           SKY/WX    TMP DP  RH WIND       PRES   REMARKS
ADRIAN         CLOUDY    37  30  75 W8        30.07R WCI  31
ALMA           CLOUDY    36  31  82 SW13      29.99R WCI  27
ANN ARBOR      CLOUDY    37  29  72 SW13      30.04R WCI  29
BAD AXE        CLOUDY    36  32  86 SW13G18   29.97R WCI  27
CARO           CLOUDY    36  30  80 SW10      29.98R WCI  28
DETROIT CITY   CLOUDY    39  28  64 SW13      30.04R WCI  31
DETROIT        CLOUDY    38  30  73 SW13      30.06R WCI  30
FLINT          CLOUDY    37  29  72 SW10G22   30.02R WCI  30
GROSSE ILE     CLOUDY    37  30  75 SW10      30.05R WCI  30
HILLSDALE      CLOUDY    36  31  81 SW10G17   30.05R WCI  29
HOWELL         CLOUDY    35  30  83 SW12      30.01R WCI  26

CITY           SKY/WX    TMP DP  RH WIND       PRES   REMARKS
JACKSON        CLOUDY    36  28  73 W10       30.04R WCI  28
LAMBERTVILLE   CLOUDY    37  32  81 SW7G16    30.08R WCI  32
LANSING        CLOUDY    36  29  75 SW13      30.03R WCI  27
LAPEER         CLOUDY    36  29  76 W14       30.01R WCI  27
MASON          CLOUDY    35  29  79 SW7       30.03R WCI  29
MONROE         CLOUDY    37  30  75 SW14      30.06R WCI  29
MT. CLEMENS    CLOUDY    38  32  78 W10       30.02R WCI  31
PONTIAC        CLOUDY    35  28  75 W13       30.01R WCI  26
PORT HOPE        N/A     37  30  75 SW13G18   29.93R WCI  29
PORT HURON     CLOUDY    37  30  75 W6        30.02R WCI  33
TRI CITIES     CLOUDY    38  30  73 SW15      29.98R WCI  29
TROY           CLOUDY    39  30  71 SW9G16    30.05R WCI  32
SAGINAW HB     CLOUDY    36  32  87 SW10G17   29.99R WCI  28
$$
MIZ043>046-050>051-056>058-064>065-071>073-077>080-252300-
SOUTHWEST LOWER MICHIGAN

CITY           SKY/WX    TMP DP  RH WIND       PRES   REMARKS
BATTLE CREEK   MOCLDY    37  29  72 SW10      30.03R WCI  30
BENTON HARBOR  CLEAR     37  30  75 S7        30.01S WCI  32
BIG RAPIDS     CLOUDY    35  31  88 SW9       29.93S WCI  27
COLDWATER      CLOUDY    36  30  79 SW8       30.05R WCI  30
FREMONT        CLOUDY    35  30  82 SW10      29.95S WCI  28
HOLLAND        MOCLDY    39  30  70 SW16G23   30.00R WCI  30
GRAND RAPIDS   MOCLDY    36  29  75 SW13      29.99S WCI  27
IONIA          CLOUDY    37  30  77 SW14G21   30.00R WCI  28
KALAMAZOO      PTCLDY    37  29  72 SW13      30.02S WCI  29
MARSHALL       CLOUDY    35  29  79 SW10      30.03R WCI  27
MOUNT PLEASANT CLOUDY    36  30  78 SW12G20   29.96R WCI  28
MUSKEGON       MOCLDY    38  31  76 SW15      29.97R WCI  29
SOUTH HAVEN    PTCLDY    38  31  73 SW7       30.01R WCI  33
$$
MIZ016>042-252300-
NORTHERN LOWER MICHIGAN

CITY           SKY/WX    TMP DP  RH WIND       PRES   REMARKS
ALPENA         CLOUDY    36  30  79 SW12      29.89R WCI  28
BEAVER ISLAND  CLOUDY    36  32  85 SW13      29.85R WCI  27
BELLAIRE       CLOUDY    37  31  76 SW7       29.88S WCI  32
CADILLAC       CLOUDY    32  29  90 SW12      29.88S WCI  23
CHARLEVOIX     CLOUDY    36  31  83 SW9G17    29.88R WCI  29
FRANKFORT      CLOUDY    37  32  84 SW9G22    29.90R WCI  30
GAYLORD        CLOUDY    33  29  85 SW13      29.85R WCI  24
GRAYLING       CLOUDY    34  30  86 SW8       29.89R WCI  27
HARBOR SPRINGS CLOUDY    36  31  82 SW9G16    29.86R WCI  29
HOUGHTON LAKE  CLOUDY    34  28  79 SW13G21   29.91R WCI  25
MANISTEE       CLOUDY    37  28  70 SW8       29.92R WCI  31
OSCODA         CLOUDY    37  31  81 SW16G23   29.91R WCI  27
PELLSTON       MOCLDY    37  30  75 SW12G24   29.85R WCI  29
ROGERS CITY    CLOUDY    36  32  86 SW8       29.87R WCI  30
TRAVERSE CITY  CLOUDY    37  29  72 SW9       29.88R WCI  30
$$
MIZ007>008-015-252300-
EASTERN UPPER MICHIGAN

CITY           SKY/WX    TMP DP  RH WIND       PRES   REMARKS
KINROSS        CLOUDY    36  32  87 W13       29.82R WCI  27
MACKINAC ISLAN CLOUDY    36  34  92 W13       29.83R WCI  27
NEWBERRY       CLOUDY    33  31  91 SW9       29.81R WCI  26
S. S. MARIE    CLOUDY    35  30  82 SW10      29.80R WCI  27
MUNISING         N/A     38  28  67 VRB3      29.80R
$$
MIZ004>006-011>014-085-252300-
CENTRAL UPPER MICHIGAN

CITY           SKY/WX    TMP DP  RH WIND       PRES   REMARKS
MANISTIQUE     CLOUDY    35  31  88 MISG      29.82R
ESCANABA       MOCLDY    36  28  75 SW6       29.82R WCI  31
MENOMINEE      CLOUDY    36  28  75 SW7       29.84S WCI  30
SAWYER-GWINN   CLOUDY    34  30  86 SW8       29.78R WCI  27
$$
MIZ001>003-009>011-084-252300-
WESTERN UPPER MICHIGAN

CITY           SKY/WX    TMP DP  RH WIND       PRES   REMARKS
IRON MOUNTAIN  CLOUDY    33  28  81 S6        29.79R WCI  28
HOUGHTON       CLOUDY    32  29  88 W12       29.75R WCI  23
COPPER HARBOR    N/A     35  30  82 W6        29.75R WCI  30
IRONWOOD       CLOUDY    30  28  93 SW12      29.75R WCI  21
$$

ABBREVIATIONS USED IN REMARKS
   TC - TEMPERATURE IN CELSIUS
  WCI - WIND CHILL INDEX
   HX - HEAT INDEX
  VSB - VISIBILITY



USA.gov is the U.S. government's official web portal to all federal, state and local government web resources and services.